TimeEST,TemperatureF,Dew PointF,Humidity,Sea Level PressureIn,VisibilityMPH,Wind Direction,Wind SpeedMPH,Gust SpeedMPH,PrecipitationIn,Events,Conditions,WindDirDegrees,DateUTC
12:53 AM,57.9,48.9,72,29.84,6.0,SW,18.4,32.2,0.00,,Haze,230,2011-11-20 05:53:00
1:53 AM,57.9,50.0,75,29.85,6.0,SW,13.8,-,N/A,,Haze,230,2011-11-20 06:53:00
2:13 AM,57.2,50.0,77,29.85,6.0,WSW,11.5,-,N/A,,Haze,240,2011-11-20 07:13:00
2:53 AM,59.0,50.0,72,29.89,4.0,West,20.7,28.8,N/A,,Haze,260,2011-11-20 07:53:00
3:38 AM,57.2,48.2,72,29.90,4.0,West,21.9,29.9,N/A,,Haze,260,2011-11-20 08:38:00
3:53 AM,57.0,46.9,69,29.91,4.0,West,19.6,33.4,N/A,,Haze,260,2011-11-20 08:53:00
4:11 AM,55.4,46.4,72,29.92,4.0,West,13.8,26.5,N/A,,Haze,270,2011-11-20 09:11:00
4:19 AM,55.4,46.4,72,29.93,5.0,West,17.3,32.2,N/A,,Haze,260,2011-11-20 09:19:00
4:28 AM,55.4,44.6,67,29.94,5.0,West,20.7,28.8,N/A,,Haze,270,2011-11-20 09:28:00
4:53 AM,50.0,43.0,77,29.99,4.0,WNW,21.9,31.1,N/A,,Haze,290,2011-11-20 09:53:00
5:53 AM,46.9,39.9,77,30.04,5.0,NW,19.6,24.2,N/A,,Haze,310,2011-11-20 10:53:00
6:53 AM,45.0,37.0,74,30.09,7.0,WNW,12.7,-,N/A,,Overcast,300,2011-11-20 11:53:00
7:53 AM,44.1,37.0,76,30.12,10.0,NW,10.4,-,N/A,,Overcast,310,2011-11-20 12:53:00
8:08 AM,44.6,37.4,76,30.11,10.0,NW,9.2,-,N/A,,Overcast,320,2011-11-20 13:08:00
8:19 AM,44.6,37.4,76,30.12,10.0,NNW,8.1,-,N/A,,Overcast,340,2011-11-20 13:19:00
8:53 AM,43.0,36.0,76,30.15,10.0,NNW,10.4,-,N/A,,Mostly Cloudy,340,2011-11-20 13:53:00
9:53 AM,45.0,36.0,71,30.18,10.0,NNW,8.1,-,N/A,,Partly Cloudy,340,2011-11-20 14:53:00
10:53 AM,46.9,34.0,61,30.20,10.0,NNW,8.1,-,N/A,,Partly Cloudy,340,2011-11-20 15:53:00
11:32 AM,46.4,33.8,62,30.20,10.0,NW,9.2,-,N/A,,Mostly Cloudy,320,2011-11-20 16:32:00
11:53 AM,48.0,34.0,58,30.21,10.0,NNW,8.1,-,N/A,,Overcast,340,2011-11-20 16:53:00
12:53 PM,46.0,34.0,63,30.22,10.0,NNW,9.2,-,N/A,,Overcast,330,2011-11-20 17:53:00
1:53 PM,44.6,33.8,66,30.21,10.0,NNW,9.2,-,N/A,,Overcast,330,2011-11-20 18:53:00
2:00 PM,44.6,33.8,66,30.21,10.0,NNW,10.4,-,N/A,,Overcast,330,2011-11-20 19:00:00
2:53 PM,45.0,33.1,63,30.22,10.0,NNW,12.7,-,N/A,,Mostly Cloudy,330,2011-11-20 19:53:00
3:53 PM,42.1,32.0,67,30.25,10.0,NNW,13.8,-,N/A,,Partly Cloudy,340,2011-11-20 20:53:00
4:53 PM,41.0,30.9,67,30.27,10.0,North,11.5,-,N/A,,Clear,350,2011-11-20 21:53:00
5:53 PM,39.9,30.9,70,30.29,10.0,North,11.5,-,N/A,,Partly Cloudy,360,2011-11-20 22:53:00
6:53 PM,39.0,30.0,70,30.32,10.0,North,6.9,-,N/A,,Clear,10,2011-11-20 23:53:00
7:53 PM,39.0,28.9,67,30.33,10.0,NNE,4.6,-,N/A,,Mostly Cloudy,30,2011-11-21 00:53:00
8:53 PM,37.9,30.0,73,30.33,9.0,NNE,4.6,-,N/A,,Clear,30,2011-11-21 01:53:00
9:53 PM,37.0,28.9,73,30.33,10.0,Calm,Calm,-,N/A,,Clear,0,2011-11-21 02:53:00
10:53 PM,35.6,28.4,75,30.31,10.0,NE,5.8,-,N/A,,Clear,40,2011-11-21 03:53:00
11:53 PM,35.1,28.0,76,30.33,10.0,NNE,5.8,-,N/A,,Clear,30,2011-11-21 04:53:00